Zurück zum Katalog

H-2A R/B

AktivHEO
NORAD 42739·ROCKET BODY·🇯🇵 Japan

Gestartet Jun 1, 2017 von Tanegashima Space Center

Loading…

Nächste Überflüge (nächste 24 Stunden)

TLE

AktuellSource: Space-Track

Epoche: Sep 11, 2026, 19:41 UTC

1 42739U 17028B   26254.82065838  .00002521  00000-0  70325-3 0  9992
2 42739  31.3256 136.8856 7165081 270.1410  15.5528  2.42668278 79587

Verfolge H-2A R/B in Echtzeit mit AllMySat

Download on the App Store